(289347) = 2005 BR9

Discovered at Socorro on 2005-01-16 by LINEAR.

Orbit

Orbit type: Main Belt

Note: WebGL enabled browser required.

epoch2022-01-21.0
epoch JD2459600.5
perihelion date2021-02-18.32976
perihelion JD2459263.82976
argument of perihelion (°)143.34611
ascending node (°)298.98749
inclination (°)11.96134
eccentricity0.0847454
perihelion distance (AU)2.3561093
Tisserand w.r.t. Jupiter3.4
ΔV w.r.t. Earth (km/sec)10.3
semimajor axis (AU)2.5742664
mean anomaly (°)80.33935
mean daily motion (°/day)0.23862920
aphelion distance (AU)2.792
period (years)4.13
P-vector [x]0.12206700
P-vector [y]0.85430307
P-vector [z]0.50523847
Q-vector [x]-0.97582490
Q-vector [y]0.19627960
Q-vector [z]-0.09612540
absolute magnitude16.74
phase slope0.15
uncertainty0
referenceMPO 696949
observations used220
oppositions13
arc length (days)6787
first opposition used2003
last opposition used2022
residual rms (arc-secs)0.73
perturbers coarse indicatorM-v
perturbers precise indicator003Ek
first observation date used2003-10-05.0
last observation date used2022-05-05.0
computer namePan
JD of orbit computation2455941.251632
perihelion JD uncertainty (days)6.4839E-04
argument of perihelion uncertainty (°)1.6562E-04
ascending node uncertainty (°)3.2288E-05
inclination uncertainty (°)1.4277E-05
eccentricity uncertainty 1.5640E-07
perihelion distance uncertainty (AU)3.9754E-07
Minimum Orbit Intersection Distances (in AU)
for orbit epoch: 2458200.5, reference: MPO408086
Mercury2.05239
Venus1.64604
Earth1.38611
Mars0.764814
Jupiter2.37897
Saturn6.72203
Uranus15.6604
Neptune27.3444

Observations

223 total observations over interval: 2003 10 05.11780 – 2022 05 05.256003
These data are available for download (format description).

Date (UT) J2000 RA J2000 Dec Magn Location Ref
2003 10 05.11780 22 56 12.81 +10 58 50.9 21.0 V 691 – Steward Observatory, Kitt Peak-Spacewatch MPS 271760
2003 10 05.14520 22 56 11.57 +10 58 41.8 20.5 V 691 – Steward Observatory, Kitt Peak-Spacewatch MPS 271760
2003 10 05.17287 22 56 10.38 +10 58 35.1 21.1 V 691 – Steward Observatory, Kitt Peak-Spacewatch MPS 271760
2004 12 19.45704 09 17 40.14 +15 53 53.1 20.0 R G96 – Mt. Lemmon Survey MPS 175547
2004 12 19.46724 09 17 39.99 +15 53 51.2 20.4 R G96 – Mt. Lemmon Survey MPS 175547
2004 12 19.47743 09 17 39.84 +15 53 48.6 19.7 R G96 – Mt. Lemmon Survey MPS 175547
2004 12 19.48764 09 17 39.66 +15 53 45.8 20.1 R G96 – Mt. Lemmon Survey MPS 175547
2005 01 16.35357 08 59 14.12 +14 33 27.9 20.3   704 – Lincoln Laboratory ETS, New Mexico MPS 124872
2005 01 16.38010 08 59 12.53 +14 33 25.2 20.4   704 – Lincoln Laboratory ETS, New Mexico MPS 124872
2005 01 16.39313 08 59 11.71 +14 33 22.4 20.3   704 – Lincoln Laboratory ETS, New Mexico MPS 124872
2005 01 17.35246 08 58 13.47 +14 31 37.8 20.1 V 691 – Steward Observatory, Kitt Peak-Spacewatch MPS 124872
2005 01 17.37814 08 58 11.82 +14 31 35.0 20.2 V 691 – Steward Observatory, Kitt Peak-Spacewatch MPS 124872
2005 01 17.40942 08 58 09.86 +14 31 31.4 20.9 V 691 – Steward Observatory, Kitt Peak-Spacewatch MPS 124872
2005 01 20.28279 08 55 10.65 +14 26 34.8 19.2 R 699 – Lowell Observatory-LONEOS MPS 124872
2005 01 20.30713 08 55 08.95 +14 26 32.0   699 – Lowell Observatory-LONEOS MPS 124872
2005 01 20.33146 08 55 07.36 +14 26 30.2   699 – Lowell Observatory-LONEOS MPS 124872
2005 01 20.35579 08 55 05.74 +14 26 27.3   699 – Lowell Observatory-LONEOS MPS 124872
2005 02 02.29326 08 40 56.63 +14 08 10.7 18.9   704 – Lincoln Laboratory ETS, New Mexico MPS 125781
2005 02 02.30690 08 40 55.76 +14 08 09.5 19.7   704 – Lincoln Laboratory ETS, New Mexico MPS 125781
2005 02 02.32015 08 40 54.90 +14 08 07.6 20.2   704 – Lincoln Laboratory ETS, New Mexico MPS 125781
2005 02 02.33358 08 40 53.95 +14 08 06.2 20.0   704 – Lincoln Laboratory ETS, New Mexico MPS 125781
2007 09 20.23954 22 05 26.37 +02 16 51.4 20.0 V G96 – Mt. Lemmon Survey MPS 271760
2007 09 20.24397 22 05 26.19 +02 16 50.6 19.8 V G96 – Mt. Lemmon Survey MPS 271760
2007 09 20.24839 22 05 25.98 +02 16 49.6 19.9 V G96 – Mt. Lemmon Survey MPS 271760
2007 09 20.25282 22 05 25.80 +02 16 49.0 19.8 V G96 – Mt. Lemmon Survey MPS 271760
2008 12 29.27163 07 54 41.22 +24 38 50.2 20.2 V G96 – Mt. Lemmon Survey MPS 271760
2008 12 29.28123 07 54 40.57 +24 38 49.0 20.4 V G96 – Mt. Lemmon Survey MPS 271760
2008 12 29.28857 07 54 40.10 +24 38 47.7 20.2 V G96 – Mt. Lemmon Survey MPS 271760
2008 12 29.29588 07 54 39.67 +24 38 46.8 20.2 V G96 – Mt. Lemmon Survey MPS 271760
2008 12 31.29614 07 52 34.61 +24 33 46.4   704 – Lincoln Laboratory ETS, New Mexico MPS 407562
2008 12 31.30598 07 52 33.99 +24 33 44.8 19.9 V 691 – Steward Observatory, Kitt Peak-Spacewatch MPS 271760
2008 12 31.30898 07 52 33.77 +24 33 45.5   704 – Lincoln Laboratory ETS, New Mexico MPS 407562
2008 12 31.32171 07 52 32.87 +24 33 41.6   704 – Lincoln Laboratory ETS, New Mexico MPS 407562
2008 12 31.32412 07 52 32.79 +24 33 42.6 19.6 V 691 – Steward Observatory, Kitt Peak-Spacewatch MPS 271760
2008 12 31.34226 07 52 31.59 +24 33 39.1 19.2 V 691 – Steward Observatory, Kitt Peak-Spacewatch MPS 271760
2009 01 21.26093 07 28 47.20 +23 28 11.7 19.8 V G96 – Mt. Lemmon Survey MPS 272544
2009 01 21.26884 07 28 46.66 +23 28 09.9 19.8 V G96 – Mt. Lemmon Survey MPS 272544
2009 01 21.27677 07 28 46.12 +23 28 08.4 19.8 V G96 – Mt. Lemmon Survey MPS 272544
2009 01 21.28476 07 28 45.55 +23 28 06.6 20.0 V G96 – Mt. Lemmon Survey MPS 272544
2011 07 28.47969 21 54 40.699 -05 35 18.88 20.7 w F51 – Pan-STARRS 1, Haleakala MPS 387201
2011 07 28.50814 21 54 39.269 -05 35 16.62 20.7 w F51 – Pan-STARRS 1, Haleakala MPS 387201
2011 07 28.52240 21 54 38.556 -05 35 15.57 20.7 w F51 – Pan-STARRS 1, Haleakala MPS 387201
2011 08 21.34004 21 32 20.626 -05 35 17.00 20.1 r F51 – Pan-STARRS 1, Haleakala MPS 388625
2011 08 21.38929 21 32 17.630 -05 35 20.10 20.0 i F51 – Pan-STARRS 1, Haleakala MPS 388625
2011 08 21.40145 21 32 16.895 -05 35 20.78 20.0 i F51 – Pan-STARRS 1, Haleakala MPS 388625
2011 09 04.29046 21 19 38.619 -05 53 28.22 20.1 i F51 – Pan-STARRS 1, Haleakala MPS 392524
2011 09 04.30141 21 19 38.067 -05 53 29.34 20.2 i F51 – Pan-STARRS 1, Haleakala MPS 392524
2012 12 22.50243 06 26 38.674 +32 10 27.40 19.4 r F51 – Pan-STARRS 1, Haleakala MPS 448726
2012 12 22.51446 06 26 37.781 +32 10 24.17 19.3 r F51 – Pan-STARRS 1, Haleakala MPS 448726
2012 12 31.49650 06 15 58.248 +31 25 30.57 19.1 i F51 – Pan-STARRS 1, Haleakala MPS 449535
2012 12 31.50786 06 15 57.433 +31 25 26.42 19.1 i F51 – Pan-STARRS 1, Haleakala MPS 449535
2013 01 10.46120 06 05 11.895 +30 24 10.28 20.6 g F51 – Pan-STARRS 1, Haleakala MPS 452164
2013 01 10.47314 06 05 11.160 +30 24 05.57 20.4 g F51 – Pan-STARRS 1, Haleakala MPS 452164
2013 01 17.42488 05 59 04.298 +29 36 53.25 20.5 g F51 – Pan-STARRS 1, Haleakala MPS 452164
2013 01 17.43743 05 59 03.684 +29 36 48.02 20.5 g F51 – Pan-STARRS 1, Haleakala MPS 452164
2014 04 28.03984 13 42 19.37 -30 40 16.2 20.3 V W84 – Cerro Tololo-DECam MPS 789368
2014 04 28.04322 13 42 19.17 -30 40 15.1   W84 – Cerro Tololo-DECam MPS 789368
2014 04 28.04658 13 42 18.98 -30 40 13.9   W84 – Cerro Tololo-DECam MPS 789368
2014 04 28.04996 13 42 18.78 -30 40 12.7   W84 – Cerro Tololo-DECam MPS 789368
2014 04 28.05327 13 42 18.58 -30 40 11.6   W84 – Cerro Tololo-DECam MPS 789368
2014 04 29.03820 13 41 22.19 -30 34 13.9 20.6 V W84 – Cerro Tololo-DECam MPS 789368
2014 04 29.04146 13 41 22.02 -30 34 12.8   W84 – Cerro Tololo-DECam MPS 789368
2014 04 29.04470 13 41 21.82 -30 34 11.6   W84 – Cerro Tololo-DECam MPS 789368
2014 04 29.04793 13 41 21.63 -30 34 10.4   W84 – Cerro Tololo-DECam MPS 789368
2014 04 29.05118 13 41 21.44 -30 34 09.3   W84 – Cerro Tololo-DECam MPS 789368
2015 06 21.42527 21 21 51.45 -14 31 09.0 20.8 V G96 – Mt. Lemmon Survey MPS 613978
2015 06 21.43081 21 21 51.35 -14 31 07.8 21.3 V G96 – Mt. Lemmon Survey MPS 613978
2015 06 21.43635 21 21 51.27 -14 31 06.7 20.8 V G96 – Mt. Lemmon Survey MPS 613978
2015 06 21.44189 21 21 51.21 -14 31 05.6 21.3 V G96 – Mt. Lemmon Survey MPS 613978
2015 07 27.38536 20 57 39.310 -13 34 01.30 20.1 i F51 – Pan-STARRS 1, Haleakala MPS 618355
2015 07 27.39696 20 57 38.587 -13 34 00.86 20.1 i F51 – Pan-STARRS 1, Haleakala MPS 618355
2015 07 27.40831 20 57 37.883 -13 34 00.60 20.3 i F51 – Pan-STARRS 1, Haleakala MPS 618355
2015 07 27.42026 20 57 37.170 -13 34 00.31 20.3 i F51 – Pan-STARRS 1, Haleakala MPS 618355
2015 07 28.38290 20 56 40.094 -13 33 33.93 20.2 r F51 – Pan-STARRS 1, Haleakala MPS 618355
2015 07 28.39501 20 56 39.359 -13 33 33.69 20.4 r F51 – Pan-STARRS 1, Haleakala MPS 618355
2015 07 28.40674 20 56 38.640 -13 33 33.57 20.4 r F51 – Pan-STARRS 1, Haleakala MPS 618355
2015 07 28.41838 20 56 37.924 -13 33 33.02 20.2 r F51 – Pan-STARRS 1, Haleakala MPS 618355
2015 08 05.46011 20 48 30.782 -13 31 04.77 19.7 i F51 – Pan-STARRS 1, Haleakala MPS 619593
2015 08 05.47178 20 48 30.040 -13 31 04.59 19.6 i F51 – Pan-STARRS 1, Haleakala MPS 619593
2015 08 05.48331 20 48 29.318 -13 31 04.41 19.5 i F51 – Pan-STARRS 1, Haleakala MPS 619593
2015 08 05.49506 20 48 28.592 -13 31 04.11 19.6 i F51 – Pan-STARRS 1, Haleakala MPS 619593
2015 08 06.44972 20 47 30.591 -13 30 53.21 19.9 r F51 – Pan-STARRS 1, Haleakala MPS 619593
2015 08 06.46176 20 47 29.832 -13 30 53.28 19.9 r F51 – Pan-STARRS 1, Haleakala MPS 619593
2015 08 06.47356 20 47 29.098 -13 30 52.89 20.1 r F51 – Pan-STARRS 1, Haleakala MPS 619593
2015 08 06.48534 20 47 28.352 -13 30 52.80 20.2 r F51 – Pan-STARRS 1, Haleakala MPS 619594
2015 09 08.37354 20 21 24.930 -13 22 11.89 20.6 w F51 – Pan-STARRS 1, Haleakala MPS 626390
2015 09 08.38559 20 21 24.584 -13 22 11.33 20.7 w F51 – Pan-STARRS 1, Haleakala MPS 626390
2015 09 08.39764 20 21 24.254 -13 22 10.90 20.6 w F51 – Pan-STARRS 1, Haleakala MPS 626390
2015 09 08.40977 20 21 23.915 -13 22 10.41 20.6 w F51 – Pan-STARRS 1, Haleakala MPS 626390
2016 11 11.41530 05 20 45.80 +37 58 38.4 19.9 V G96 – Mt. Lemmon Survey MPS 744677
2016 11 11.42464 05 20 45.40 +37 58 38.4 19.9 V G96 – Mt. Lemmon Survey MPS 744677
